Погода в Гвадиксе

Испания     37°35′19″N   3°06′12″W
темп.,
°C
ветер,
м/с
пор.,
м/с
влажн.,
%
обл.,
%
осадки,
мм/ч
давл.,
гПа
погр.,
м
22 апреля, чт
чт2223:00+13сз115997 0.0 101365
02:00+12зсз247092 0.3 1013231
05:00+11зюз117341 0.1 101227
08:00+10зсз118079 0.1 1013103
11:00+13зюз46605 0.1 1014919
14:00+16сз674726 0.8 10131792
17:00+18зсз793582 0.1 10122780
20:00+16сз553996 0.1 10131822
23 апреля, пт
пт2323:00+15с124667 0.0 1016110
02:00+12в225831 0.0 101618
05:00+9в338496 0.0 101658
08:00+9в3686100 0.0 1017177
11:00+13в6561100 0.0 1017884
14:00+17всв6547100 0.0 10161276
17:00+18всв8644100 0.0 10141313
20:00+15в6758100 0.0 1015593
24 апреля, сб
сб2423:00+11в6877100 0.0 1017377
02:00+11в5775100 0.0 1017336
05:00+9в5776100 0.0 1016185
08:00+9всв6971100 0.0 1016273
11:00+10всв4575100 1.4 1017344
14:00+14всв7862100 1.9 1014532
17:00+19в1112495 0.0 10111121
20:00+15в9115479 0.0 1011597
25 апреля, вс
вс2523:00+12всв6963100 0.3 1013410
02:00+11св466199 0.8 1013384
05:00+9в345968 0.0 101162
08:00+9в33625 0.0 101155
11:00+14в44535 0.0 1010738
14:00+19всв55477 0.0 10071278
17:00+21св554443 0.3 10041271
20:00+17ссз5558100 1.3 1005514
26 апреля, пн
пн2623:00+13з1279100 2.6 1008245
02:00+11з239316 3.8 100994
05:00+10зюз229537 0.4 100845
08:00+10зюз229297 0.4 100997
11:00+14зсз346333 0.0 1009967
14:00+16зюз91052100 0.1 10081242
17:00+18з89445 0.0 10061715
20:00+16зсз895572 0.1 10071159